Time,TemperatureF,DewpointF,PressureIn,WindDirection,WindDirectionDegrees,WindSpeedMPH,WindSpeedGustMPH,Humidity,HourlyPrecipIn,Conditions,Clouds,dailyrainin,SoftwareType,DateUTC
2013-01-18 00:01:00,23.9,8.8,30.13,NW,320,8.1,8.1,52,0.00,OVC,,0.00,WeatherDisplay:10.37,2013-01-18 05:01:00,
2013-01-18 00:03:00,24.1,9.0,30.13,NW,320,8.1,8.1,52,0.00,OVC,,0.00,WeatherDisplay:10.37,2013-01-18 05:03:00,
2013-01-18 00:09:00,23.9,8.8,30.13,NW,320,8.1,8.1,52,0.00,OVC,,0.00,WeatherDisplay:10.37,2013-01-18 05:09:00,
2013-01-18 00:14:00,23.9,8.8,30.13,NW,320,8.1,8.1,52,0.00,OVC,,0.00,WeatherDisplay:10.37,2013-01-18 05:14:00,
2013-01-18 00:19:00,23.7,7.3,30.13,WNW,300,6.9,6.9,49,0.00,OVC,,0.00,WeatherDisplay:10.37,2013-01-18 05:19:00,
2013-01-18 00:24:00,23.7,7.3,30.13,WNW,300,6.9,6.9,49,0.00,OVC,,0.00,WeatherDisplay:10.37,2013-01-18 05:24:00,
2013-01-18 00:29:00,23.7,7.3,30.13,WNW,300,6.9,6.9,49,0.00,OVC,,0.00,WeatherDisplay:10.37,2013-01-18 05:29:00,
2013-01-18 00:34:00,23.7,7.3,30.13,WNW,300,6.9,6.9,49,0.00,OVC,,0.00,WeatherDisplay:10.37,2013-01-18 05:34:00,
2013-01-18 00:39:00,23.7,7.3,30.13,WNW,300,6.9,6.9,49,0.00,OVC,,0.00,WeatherDisplay:10.37,2013-01-18 05:39:00,
2013-01-18 00:44:00,23.5,7.2,30.13,WNW,300,6.9,6.9,49,0.00,OVC,,0.00,WeatherDisplay:10.37,2013-01-18 05:44:00,
2013-01-18 00:49:00,23.5,7.2,30.13,WNW,300,6.9,6.9,49,0.00,OVC,,0.00,WeatherDisplay:10.37,2013-01-18 05:49:00,
2013-01-18 00:54:00,23.5,7.2,30.13,WNW,300,6.9,6.9,49,0.00,OVC,,0.00,WeatherDisplay:10.37,2013-01-18 05:54:00,
2013-01-18 00:59:00,23.4,7.0,30.13,WNW,300,6.9,6.9,49,0.00,OVC,,0.00,WeatherDisplay:10.37,2013-01-18 05:59:00,
2013-01-18 01:04:00,23.4,7.0,30.13,WNW,300,9.2,9.2,49,0.00,OVC,,0.00,WeatherDisplay:10.37,2013-01-18 06:04:00,
2013-01-18 01:09:00,23.2,6.8,30.13,WNW,300,9.2,9.2,49,0.00,OVC,,0.00,WeatherDisplay:10.37,2013-01-18 06:09:00,
2013-01-18 01:14:00,23.2,6.8,30.13,WNW,300,9.2,9.2,49,0.00,OVC,,0.00,WeatherDisplay:10.37,2013-01-18 06:14:00,
2013-01-18 01:19:00,23.2,6.8,30.13,WNW,300,9.2,9.2,49,0.00,OVC,,0.00,WeatherDisplay:10.37,2013-01-18 06:19:00,
2013-01-18 01:24:00,23.0,6.7,30.13,WNW,300,9.2,9.2,49,0.00,OVC,,0.00,WeatherDisplay:10.37,2013-01-18 06:24:00,
2013-01-18 01:29:00,23.0,6.7,30.13,WNW,300,9.2,9.2,49,0.00,OVC,,0.00,WeatherDisplay:10.37,2013-01-18 06:29:00,
2013-01-18 01:34:00,22.8,6.5,30.13,WNW,300,9.2,9.2,49,0.00,OVC,,0.00,WeatherDisplay:10.37,2013-01-18 06:34:00,
2013-01-18 01:39:00,22.8,6.5,30.13,WNW,300,9.2,9.2,49,0.00,OVC,,0.00,WeatherDisplay:10.37,2013-01-18 06:39:00,
2013-01-18 01:44:00,22.8,6.5,30.13,WNW,300,9.2,9.2,49,0.00,OVC,,0.00,WeatherDisplay:10.37,2013-01-18 06:44:00,
2013-01-18 01:49:00,22.5,6.2,30.13,WNW,300,9.2,9.2,49,0.00,OVC,,0.00,WeatherDisplay:10.37,2013-01-18 06:49:00,
2013-01-18 01:54:00,22.1,5.8,30.13,WNW,300,9.2,9.2,49,0.00,OVC,,0.00,WeatherDisplay:10.37,2013-01-18 06:54:00,
2013-01-18 01:59:00,21.9,5.7,30.16,WNW,300,9.2,9.2,49,0.00,OVC,,0.00,WeatherDisplay:10.37,2013-01-18 06:59:00,
2013-01-18 02:04:00,21.7,5.5,30.16,WNW,300,9.2,9.2,49,0.00,OVC,,0.00,WeatherDisplay:10.37,2013-01-18 07:04:00,
2013-01-18 02:09:00,21.6,5.3,30.16,WNW,300,9.2,9.2,49,0.00,OVC,,0.00,WeatherDisplay:10.37,2013-01-18 07:09:00,
2013-01-18 02:14:00,21.2,5.0,30.19,WNW,300,9.2,9.2,49,0.00,OVC,,0.00,WeatherDisplay:10.37,2013-01-18 07:14:00,
2013-01-18 02:19:00,21.0,4.4,30.19,North,10,9.2,9.2,48,0.00,OVC,,0.00,WeatherDisplay:10.37,2013-01-18 07:19:00,
2013-01-18 02:24:00,20.8,4.2,30.19,North,10,9.2,9.2,48,0.00,OVC,,0.00,WeatherDisplay:10.37,2013-01-18 07:24:00,
2013-01-18 02:29:00,20.5,3.9,30.19,North,10,9.2,9.2,48,0.00,OVC,,0.00,WeatherDisplay:10.37,2013-01-18 07:29:00,
2013-01-18 02:34:00,20.3,3.7,30.19,North,10,9.2,9.2,48,0.00,OVC,,0.00,WeatherDisplay:10.37,2013-01-18 07:34:00,
2013-01-18 02:39:00,20.3,3.7,30.19,North,10,9.2,9.2,48,0.00,OVC,,0.00,WeatherDisplay:10.37,2013-01-18 07:39:00,
2013-01-18 02:44:00,20.1,3.5,30.19,North,10,9.2,9.2,48,0.00,OVC,,0.00,WeatherDisplay:10.37,2013-01-18 07:44:00,
2013-01-18 02:49:00,19.9,3.4,30.19,North,10,9.2,9.2,48,0.00,OVC,,0.00,WeatherDisplay:10.37,2013-01-18 07:49:00,
2013-01-18 02:54:00,19.8,3.2,30.19,North,10,9.2,9.2,48,0.00,OVC,,0.00,WeatherDisplay:10.37,2013-01-18 07:54:00,
2013-01-18 02:59:00,19.8,3.2,30.19,North,10,9.2,9.2,48,0.00,OVC,,0.00,WeatherDisplay:10.37,2013-01-18 07:59:00,
2013-01-18 03:04:00,19.8,3.2,30.19,North,10,9.2,9.2,48,0.00,OVC,,0.00,WeatherDisplay:10.37,2013-01-18 08:04:00,
2013-01-18 03:09:00,19.6,3.0,30.19,North,10,9.2,9.2,48,0.00,OVC,,0.00,WeatherDisplay:10.37,2013-01-18 08:09:00,
2013-01-18 03:14:00,19.4,2.9,30.19,North,10,9.2,9.2,48,0.00,OVC,,0.00,WeatherDisplay:10.37,2013-01-18 08:14:00,
2013-01-18 03:19:00,19.2,3.6,30.19,North,10,8.1,8.1,50,0.00,BKN,,0.00,WeatherDisplay:10.37,2013-01-18 08:19:00,
2013-01-18 03:24:00,19.4,3.8,30.19,North,10,8.1,8.1,50,0.00,BKN,,0.00,WeatherDisplay:10.37,2013-01-18 08:24:00,
2013-01-18 03:29:00,19.2,3.6,30.19,North,10,8.1,8.1,50,0.00,BKN,,0.00,WeatherDisplay:10.37,2013-01-18 08:29:00,
2013-01-18 03:34:00,19.2,3.6,30.19,North,10,8.1,8.1,50,0.00,BKN,,0.00,WeatherDisplay:10.37,2013-01-18 08:34:00,
2013-01-18 03:39:00,19.2,3.6,30.19,North,10,8.1,8.1,50,0.00,BKN,,0.00,WeatherDisplay:10.37,2013-01-18 08:39:00,
2013-01-18 03:44:00,19.2,3.6,30.19,North,10,8.1,8.1,50,0.00,BKN,,0.00,WeatherDisplay:10.37,2013-01-18 08:44:00,
2013-01-18 03:49:00,19.0,3.4,30.19,North,10,8.1,8.1,50,0.00,BKN,,0.00,WeatherDisplay:10.37,2013-01-18 08:49:00,
2013-01-18 03:54:00,18.7,3.1,30.19,North,10,8.1,8.1,50,0.00,BKN,,0.00,WeatherDisplay:10.37,2013-01-18 08:54:00,
2013-01-18 03:59:00,18.7,3.1,30.19,North,10,8.1,8.1,50,0.00,BKN,,0.00,WeatherDisplay:10.37,2013-01-18 08:59:00,
2013-01-18 04:04:00,18.7,3.1,30.19,North,10,8.1,8.1,50,0.00,BKN,,0.00,WeatherDisplay:10.37,2013-01-18 09:04:00,
2013-01-18 04:09:00,18.7,3.1,30.19,North,10,8.1,8.1,50,0.00,BKN,,0.00,WeatherDisplay:10.37,2013-01-18 09:09:00,
2013-01-18 04:14:00,18.7,3.1,30.22,North,10,8.1,8.1,50,0.00,BKN,,0.00,WeatherDisplay:10.37,2013-01-18 09:14:00,
2013-01-18 04:19:00,18.7,7.1,30.22,NNW,340,6.9,6.9,60,0.00,OVC,,0.00,WeatherDisplay:10.37,2013-01-18 09:19:00,
2013-01-18 04:24:00,18.5,6.9,30.22,NNW,340,6.9,6.9,60,0.00,OVC,,0.00,WeatherDisplay:10.37,2013-01-18 09:24:00,
2013-01-18 04:29:00,18.5,6.9,30.22,NNW,340,6.9,6.9,60,0.00,OVC,,0.00,WeatherDisplay:10.37,2013-01-18 09:29:00,
2013-01-18 04:34:00,18.1,6.6,30.22,NNW,340,6.9,6.9,60,0.00,OVC,,0.00,WeatherDisplay:10.37,2013-01-18 09:34:00,
2013-01-18 04:39:00,18.1,6.6,30.22,NNW,340,6.9,6.9,60,0.00,OVC,,0.00,WeatherDisplay:10.37,2013-01-18 09:39:00,
2013-01-18 04:44:00,18.1,6.6,30.22,NNW,340,6.9,6.9,60,0.00,OVC,,0.00,WeatherDisplay:10.37,2013-01-18 09:44:00,
2013-01-18 04:49:00,17.8,6.2,30.22,NNW,340,6.9,6.9,60,0.00,OVC,,0.00,WeatherDisplay:10.37,2013-01-18 09:49:00,
2013-01-18 04:54:00,17.8,6.2,30.22,NNW,340,6.9,6.9,60,0.00,OVC,,0.00,WeatherDisplay:10.37,2013-01-18 09:54:00,
2013-01-18 04:59:00,17.6,6.1,30.25,NNW,340,6.9,6.9,60,0.00,OVC,,0.00,WeatherDisplay:10.37,2013-01-18 09:59:00,
2013-01-18 05:04:00,17.6,4.9,30.25,North,360,6.9,6.9,57,0.00,OVC,,0.00,WeatherDisplay:10.37,2013-01-18 10:04:00,
2013-01-18 05:10:00,17.4,4.8,30.25,North,360,6.9,6.9,57,0.00,OVC,,0.00,WeatherDisplay:10.37,2013-01-18 10:10:00,
2013-01-18 05:15:00,17.2,4.6,30.25,North,360,6.9,6.9,57,0.00,OVC,,0.00,WeatherDisplay:10.37,2013-01-18 10:15:00,
2013-01-18 05:20:00,17.1,4.4,30.25,North,360,6.9,6.9,57,0.00,OVC,,0.00,WeatherDisplay:10.37,2013-01-18 10:20:00,
2013-01-18 05:25:00,17.1,4.4,30.25,North,360,6.9,6.9,57,0.00,OVC,,0.00,WeatherDisplay:10.37,2013-01-18 10:25:00,
2013-01-18 05:30:00,16.9,4.3,30.25,North,360,6.9,6.9,57,0.00,OVC,,0.00,WeatherDisplay:10.37,2013-01-18 10:30:00,
2013-01-18 05:35:00,16.7,4.1,30.25,North,360,6.9,6.9,57,0.00,OVC,,0.00,WeatherDisplay:10.37,2013-01-18 10:35:00,
2013-01-18 05:40:00,16.5,3.9,30.25,North,360,6.9,6.9,57,0.00,OVC,,0.00,WeatherDisplay:10.37,2013-01-18 10:40:00,
2013-01-18 05:45:00,16.5,3.9,30.28,North,360,6.9,6.9,57,0.00,OVC,,0.00,WeatherDisplay:10.37,2013-01-18 10:45:00,
2013-01-18 05:50:00,16.2,3.6,30.28,North,360,6.9,6.9,57,0.00,OVC,,0.00,WeatherDisplay:10.37,2013-01-18 10:50:00,
2013-01-18 05:55:00,16.0,3.4,30.28,North,360,6.9,6.9,57,0.00,OVC,,0.00,WeatherDisplay:10.37,2013-01-18 10:55:00,
2013-01-18 06:00:00,15.8,3.2,30.28,North,360,6.9,6.9,57,0.00,OVC,,0.00,WeatherDisplay:10.37,2013-01-18 11:00:00,
2013-01-18 06:05:00,15.8,5.4,30.28,NNW,340,5.8,5.8,63,0.00,SCT,,0.00,WeatherDisplay:10.37,2013-01-18 11:05:00,
2013-01-18 06:10:00,15.6,5.2,30.28,NNW,340,5.8,5.8,63,0.00,SCT,,0.00,WeatherDisplay:10.37,2013-01-18 11:10:00,
2013-01-18 06:15:00,15.5,5.1,30.31,NNW,340,6.0,6.0,63,0.00,SCT,SCT,0.00,WeatherDisplay:10.37,2013-01-18 11:15:00,
2013-01-18 06:20:00,15.3,5.0,30.31,NNW,340,6.0,6.0,63,0.00,SCT,SCT,0.00,WeatherDisplay:10.37,2013-01-18 11:20:00,
2013-01-18 06:25:00,15.3,4.9,30.31,NNW,340,6.0,6.0,63,0.00,SCT,SCT,0.00,WeatherDisplay:10.37,2013-01-18 11:25:00,
2013-01-18 06:30:00,15.1,4.7,30.31,NNW,340,6.0,6.0,63,0.00,SCT,SCT,0.00,WeatherDisplay:10.37,2013-01-18 11:30:00,
2013-01-18 06:35:00,14.9,4.6,30.31,NNW,340,5.8,5.8,63,0.00,SCT,,0.00,WeatherDisplay:10.37,2013-01-18 11:35:00,
2013-01-18 06:40:00,14.9,4.6,30.31,NNW,340,5.8,5.8,63,0.00,SCT,,0.00,WeatherDisplay:10.37,2013-01-18 11:40:00,
2013-01-18 06:45:00,14.7,4.4,30.31,NNW,340,5.8,5.8,63,0.00,SCT,,0.00,WeatherDisplay:10.37,2013-01-18 11:45:00,
2013-01-18 06:50:00,14.5,4.2,30.31,NNW,340,5.8,5.8,63,0.00,SCT,,0.00,WeatherDisplay:10.37,2013-01-18 11:50:00,
2013-01-18 06:55:00,14.9,4.6,30.31,NNW,340,5.8,5.8,63,0.00,SCT,,0.00,WeatherDisplay:10.37,2013-01-18 11:55:00,
2013-01-18 07:00:00,14.5,4.2,30.34,NNW,340,5.8,5.8,63,0.00,SCT,,0.00,WeatherDisplay:10.37,2013-01-18 12:00:00,
2013-01-18 07:05:00,14.5,5.2,30.34,NNW,340,4.6,4.6,66,0.00,FEW,,0.00,WeatherDisplay:10.37,2013-01-18 12:05:00,
2013-01-18 07:10:00,14.4,5.1,30.34,NNW,340,4.6,4.6,66,0.00,FEW,,0.00,WeatherDisplay:10.37,2013-01-18 12:10:00,
2013-01-18 07:15:00,14.2,4.9,30.34,NNW,340,4.6,4.6,66,0.00,FEW,,0.00,WeatherDisplay:10.37,2013-01-18 12:15:00,
2013-01-18 07:20:00,14.2,4.9,30.34,NNW,340,4.6,4.6,66,0.00,FEW,,0.00,WeatherDisplay:10.37,2013-01-18 12:20:00,
2013-01-18 07:25:00,14.2,4.9,30.34,NNW,340,4.6,4.6,66,0.00,FEW,,0.00,WeatherDisplay:10.37,2013-01-18 12:25:00,
2013-01-18 07:30:00,14.2,4.9,30.34,NNW,340,4.6,4.6,66,0.00,FEW,,0.00,WeatherDisplay:10.37,2013-01-18 12:30:00,
2013-01-18 07:35:00,14.2,4.9,30.34,NNW,340,4.6,4.6,66,0.00,FEW,,0.00,WeatherDisplay:10.37,2013-01-18 12:35:00,
2013-01-18 07:40:00,13.8,4.5,30.34,NNW,340,4.6,4.6,66,0.00,FEW,,0.00,WeatherDisplay:10.37,2013-01-18 12:40:00,
2013-01-18 07:45:00,14.0,4.7,30.37,NNW,340,4.6,4.6,66,0.00,FEW,,0.00,WeatherDisplay:10.37,2013-01-18 12:45:00,
2013-01-18 07:50:00,14.2,4.9,30.37,NNW,340,4.6,4.6,66,0.00,FEW,,0.00,WeatherDisplay:10.37,2013-01-18 12:50:00,
2013-01-18 07:55:00,14.5,5.2,30.37,NNW,340,4.6,4.6,66,0.00,FEW,,0.00,WeatherDisplay:10.37,2013-01-18 12:55:00,
2013-01-18 08:00:00,15.1,5.8,30.37,NNW,340,4.6,4.6,66,0.00,FEW,,0.00,WeatherDisplay:10.37,2013-01-18 13:00:00,
2013-01-18 08:05:00,15.1,5.8,30.37,NNW,340,3.5,3.5,66,0.00,FEW,,0.00,WeatherDisplay:10.37,2013-01-18 13:05:00,
2013-01-18 08:10:00,15.4,6.1,30.37,NNW,340,3.5,3.5,66,0.00,FEW,,0.00,WeatherDisplay:10.37,2013-01-18 13:10:00,
2013-01-18 08:15:00,15.4,6.1,30.37,NNW,340,3.5,3.5,66,0.00,FEW,,0.00,WeatherDisplay:10.37,2013-01-18 13:15:00,
2013-01-18 08:20:00,15.8,6.4,30.37,NNW,340,3.5,3.5,66,0.00,FEW,,0.00,WeatherDisplay:10.37,2013-01-18 13:20:00,
2013-01-18 08:25:00,16.2,6.8,30.37,NNW,340,3.5,3.5,66,0.00,FEW,,0.00,WeatherDisplay:10.37,2013-01-18 13:25:00,
2013-01-18 08:30:00,16.2,6.8,30.40,NNW,340,3.5,3.5,66,0.00,FEW,,0.00,WeatherDisplay:10.37,2013-01-18 13:30:00,
2013-01-18 08:35:00,16.5,7.1,30.40,NNW,340,3.5,3.5,66,0.00,FEW,,0.00,WeatherDisplay:10.37,2013-01-18 13:35:00,
2013-01-18 08:40:00,16.5,7.1,30.40,NNW,340,3.5,3.5,66,0.00,FEW,,0.00,WeatherDisplay:10.37,2013-01-18 13:40:00,
2013-01-18 08:45:00,16.7,7.3,30.40,NNW,340,3.5,3.5,66,0.00,FEW,,0.00,WeatherDisplay:10.37,2013-01-18 13:45:00,
2013-01-18 08:50:00,16.7,7.3,30.40,NNW,340,3.5,3.5,66,0.00,FEW,,0.00,WeatherDisplay:10.37,2013-01-18 13:50:00,
2013-01-18 08:55:00,17.1,7.6,30.40,NNW,340,3.5,3.5,66,0.00,FEW,,0.00,WeatherDisplay:10.37,2013-01-18 13:55:00,
2013-01-18 09:00:00,17.4,8.0,30.40,NNW,340,3.5,3.5,66,0.00,FEW,,0.00,WeatherDisplay:10.37,2013-01-18 14:00:00,
2013-01-18 09:05:00,17.4,8.0,30.40,NNW,340,3.5,3.5,66,0.00,FEW,,0.00,WeatherDisplay:10.37,2013-01-18 14:05:00,
2013-01-18 09:10:00,17.6,8.2,30.40,NNW,340,3.5,3.5,66,0.00,FEW,,0.00,WeatherDisplay:10.37,2013-01-18 14:10:00,
2013-01-18 09:15:00,18.1,8.7,30.40,NNW,340,3.5,3.5,66,0.00,FEW,,0.00,WeatherDisplay:10.37,2013-01-18 14:15:00,
2013-01-18 09:20:00,18.3,1.9,30.40,NW,310,8.1,8.1,48,0.00,CLR,,0.00,WeatherDisplay:10.37,2013-01-18 14:20:00,
2013-01-18 09:25:00,18.5,2.0,30.40,NW,310,8.1,8.1,48,0.00,CLR,,0.00,WeatherDisplay:10.37,2013-01-18 14:25:00,
2013-01-18 09:30:00,19.0,2.5,30.40,NW,310,8.1,8.1,48,0.00,CLR,,0.00,WeatherDisplay:10.37,2013-01-18 14:30:00,
2013-01-18 09:35:00,19.4,2.9,30.40,NW,310,8.1,8.1,48,0.00,CLR,,0.00,WeatherDisplay:10.37,2013-01-18 14:35:00,
2013-01-18 09:40:00,19.4,2.9,30.40,NW,310,8.1,8.1,48,0.00,CLR,,0.00,WeatherDisplay:10.37,2013-01-18 14:40:00,
2013-01-18 09:45:00,19.9,3.4,30.42,NW,310,8.1,8.1,48,0.00,CLR,,0.00,WeatherDisplay:10.37,2013-01-18 14:45:00,
2013-01-18 09:50:00,19.9,3.4,30.42,NW,310,8.1,8.1,48,0.00,CLR,,0.00,WeatherDisplay:10.37,2013-01-18 14:50:00,
2013-01-18 09:55:00,19.8,3.2,30.42,NW,310,8.1,8.1,48,0.00,CLR,,0.00,WeatherDisplay:10.37,2013-01-18 14:55:00,
2013-01-18 10:00:00,20.1,3.5,30.42,NW,310,8.1,8.1,48,0.00,CLR,,0.00,WeatherDisplay:10.37,2013-01-18 15:00:00,
2013-01-18 10:05:00,20.3,3.7,30.42,NW,310,8.1,8.1,48,0.00,CLR,,0.00,WeatherDisplay:10.37,2013-01-18 15:05:00,
2013-01-18 10:10:00,20.3,3.7,30.42,NW,310,8.1,8.1,48,0.00,CLR,,0.00,WeatherDisplay:10.37,2013-01-18 15:10:00,
2013-01-18 10:15:00,20.5,3.9,30.42,NW,310,8.1,8.1,48,0.00,CLR,,0.00,WeatherDisplay:10.37,2013-01-18 15:15:00,
2013-01-18 10:20:00,20.5,-2.3,30.42,WNW,290,12.7,12.7,36,0.00,CLR,,0.00,WeatherDisplay:10.37,2013-01-18 15:20:00,
2013-01-18 10:25:00,20.7,-2.1,30.42,WNW,290,12.7,12.7,36,0.00,CLR,,0.00,WeatherDisplay:10.37,2013-01-18 15:25:00,
2013-01-18 10:30:00,21.0,-1.8,30.42,WNW,290,12.7,12.7,36,0.00,CLR,,0.00,WeatherDisplay:10.37,2013-01-18 15:30:00,
2013-01-18 10:35:00,20.8,-2.0,30.42,WNW,290,12.7,12.7,36,0.00,CLR,,0.00,WeatherDisplay:10.37,2013-01-18 15:35:00,
2013-01-18 10:40:00,20.8,-2.0,30.42,WNW,290,12.7,12.7,36,0.00,CLR,,0.00,WeatherDisplay:10.37,2013-01-18 15:40:00,
2013-01-18 10:45:00,21.2,-1.6,30.42,WNW,290,12.7,12.7,36,0.00,CLR,,0.00,WeatherDisplay:10.37,2013-01-18 15:45:00,
2013-01-18 10:50:00,21.4,-1.5,30.42,WNW,290,12.7,12.7,36,0.00,CLR,,0.00,WeatherDisplay:10.37,2013-01-18 15:50:00,
2013-01-18 10:55:00,21.2,-1.6,30.42,WNW,290,12.7,12.7,36,0.00,CLR,,0.00,WeatherDisplay:10.37,2013-01-18 15:55:00,
2013-01-18 11:00:00,21.0,-1.8,30.42,WNW,290,12.7,12.7,36,0.00,CLR,,0.00,WeatherDisplay:10.37,2013-01-18 16:00:00,
2013-01-18 11:05:00,21.2,-1.6,30.42,WNW,290,12.7,12.7,36,0.00,CLR,,0.00,WeatherDisplay:10.37,2013-01-18 16:05:00,
2013-01-18 11:10:00,21.4,-1.5,30.42,WNW,290,12.7,12.7,36,0.00,CLR,,0.00,WeatherDisplay:10.37,2013-01-18 16:10:00,
2013-01-18 11:15:00,21.6,-1.3,30.42,WNW,290,12.7,12.7,36,0.00,CLR,,0.00,WeatherDisplay:10.37,2013-01-18 16:15:00,
2013-01-18 11:20:00,21.2,-2.9,30.42,WNW,290,6.9,6.9,34,0.00,CLR,,0.00,WeatherDisplay:10.37,2013-01-18 16:20:00,
2013-01-18 11:25:00,20.8,-3.2,30.42,WNW,290,6.9,6.9,34,0.00,CLR,,0.00,WeatherDisplay:10.37,2013-01-18 16:25:00,
2013-01-18 11:30:00,21.4,-2.7,30.42,WNW,290,6.9,6.9,34,0.00,CLR,,0.00,WeatherDisplay:10.37,2013-01-18 16:30:00,
2013-01-18 11:35:00,21.4,-2.7,30.42,WNW,290,6.9,6.9,34,0.00,CLR,,0.00,WeatherDisplay:10.37,2013-01-18 16:35:00,
2013-01-18 11:40:00,21.9,-2.2,30.42,WNW,290,6.9,6.9,34,0.00,CLR,,0.00,WeatherDisplay:10.37,2013-01-18 16:40:00,
2013-01-18 11:45:00,22.5,-1.7,30.42,WNW,290,6.9,6.9,34,0.00,CLR,,0.00,WeatherDisplay:10.37,2013-01-18 16:45:00,
2013-01-18 11:50:00,22.5,-1.7,30.42,WNW,290,6.9,6.9,34,0.00,CLR,,0.00,WeatherDisplay:10.37,2013-01-18 16:50:00,
2013-01-18 11:55:00,22.5,-1.7,30.42,WNW,290,6.9,6.9,34,0.00,CLR,,0.00,WeatherDisplay:10.37,2013-01-18 16:55:00,
2013-01-18 12:00:00,22.5,-1.7,30.42,WNW,290,6.9,6.9,34,0.00,CLR,,0.00,WeatherDisplay:10.37,2013-01-18 17:00:00,
2013-01-18 12:05:00,21.9,2.3,30.42,WNW,300,13.8,24.2,42,0.00,SCT,,0.00,WeatherDisplay:10.37,2013-01-18 17:05:00,
2013-01-18 12:10:00,21.9,2.3,30.42,WNW,300,13.8,24.2,42,0.00,SCT,,0.00,WeatherDisplay:10.37,2013-01-18 17:10:00,
2013-01-18 12:16:00,21.7,2.1,30.42,WNW,300,13.8,24.2,42,0.00,SCT,,0.00,WeatherDisplay:10.37,2013-01-18 17:16:00,
2013-01-18 12:21:00,22.3,2.6,30.42,WNW,300,13.8,24.2,42,0.00,SCT,,0.00,WeatherDisplay:10.37,2013-01-18 17:21:00,
2013-01-18 12:26:00,22.5,2.8,30.42,WNW,300,13.8,24.2,42,0.00,SCT,,0.00,WeatherDisplay:10.37,2013-01-18 17:26:00,
2013-01-18 12:31:00,22.5,2.8,30.42,WNW,300,13.8,24.2,42,0.00,SCT,,0.00,WeatherDisplay:10.37,2013-01-18 17:31:00,
2013-01-18 12:36:00,22.6,3.0,30.42,WNW,300,13.8,24.2,42,0.00,SCT,,0.00,WeatherDisplay:10.37,2013-01-18 17:36:00,
2013-01-18 12:41:00,22.8,3.1,30.42,WNW,300,13.8,24.2,42,0.00,SCT,,0.00,WeatherDisplay:10.37,2013-01-18 17:41:00,
2013-01-18 12:46:00,23.0,3.3,30.42,WNW,300,13.8,24.2,42,0.00,SCT,,0.00,WeatherDisplay:10.37,2013-01-18 17:46:00,
2013-01-18 12:51:00,22.8,3.1,30.42,WNW,300,13.8,24.2,42,0.00,SCT,,0.00,WeatherDisplay:10.37,2013-01-18 17:51:00,
2013-01-18 12:56:00,22.6,3.0,30.42,WNW,300,13.8,24.2,42,0.00,SCT,,0.00,WeatherDisplay:10.37,2013-01-18 17:56:00,
2013-01-18 13:01:00,22.8,3.1,30.42,WNW,300,13.8,24.2,42,0.00,SCT,,0.00,WeatherDisplay:10.37,2013-01-18 18:01:00,
2013-01-18 13:06:00,22.8,4.1,30.42,WNW,290,11.5,11.5,44,0.00,FEW,,0.00,WeatherDisplay:10.37,2013-01-18 18:06:00,
2013-01-18 13:11:00,23.0,4.3,30.42,WNW,290,11.5,11.5,44,0.00,FEW,,0.00,WeatherDisplay:10.37,2013-01-18 18:11:00,
2013-01-18 13:16:00,23.2,4.5,30.42,WNW,290,11.5,11.5,44,0.00,FEW,,0.00,WeatherDisplay:10.37,2013-01-18 18:16:00,
2013-01-18 13:21:00,23.5,4.8,30.42,WNW,290,11.5,11.5,44,0.00,FEW,,0.00,WeatherDisplay:10.37,2013-01-18 18:21:00,
2013-01-18 13:26:00,23.5,4.8,30.42,WNW,290,11.5,11.5,44,0.00,FEW,,0.00,WeatherDisplay:10.37,2013-01-18 18:26:00,
2013-01-18 13:31:00,23.5,4.8,30.42,WNW,290,11.5,11.5,44,0.00,FEW,,0.00,WeatherDisplay:10.37,2013-01-18 18:31:00,
2013-01-18 13:36:00,23.7,5.0,30.42,WNW,290,11.5,11.5,44,0.00,FEW,,0.00,WeatherDisplay:10.37,2013-01-18 18:36:00,
2013-01-18 13:41:00,23.5,4.8,30.42,WNW,290,11.5,11.5,44,0.00,FEW,,0.00,WeatherDisplay:10.37,2013-01-18 18:41:00,
2013-01-18 13:46:00,23.9,5.1,30.42,WNW,290,11.5,11.5,44,0.00,FEW,,0.00,WeatherDisplay:10.37,2013-01-18 18:46:00,
2013-01-18 13:51:00,24.1,5.3,30.42,WNW,290,11.5,11.5,44,0.00,FEW,,0.00,WeatherDisplay:10.37,2013-01-18 18:51:00,
2013-01-18 13:56:00,23.9,5.1,30.42,WNW,290,11.5,11.5,44,0.00,FEW,,0.00,WeatherDisplay:10.37,2013-01-18 18:56:00,
2013-01-18 14:01:00,23.9,4.6,30.42,West,280,15.0,15.0,43,0.00,SCT,,0.00,WeatherDisplay:10.37,2013-01-18 19:01:00,
2013-01-18 14:06:00,24.4,5.1,30.42,West,280,15.0,15.0,43,0.00,SCT,,0.00,WeatherDisplay:10.37,2013-01-18 19:06:00,
2013-01-18 14:11:00,24.3,4.9,30.42,West,280,15.0,15.0,43,0.00,SCT,,0.00,WeatherDisplay:10.37,2013-01-18 19:11:00,
2013-01-18 14:16:00,24.4,5.1,30.42,West,280,15.0,15.0,43,0.00,SCT,,0.00,WeatherDisplay:10.37,2013-01-18 19:16:00,
2013-01-18 14:21:00,24.4,5.1,30.42,West,280,15.0,15.0,43,0.00,SCT,,0.00,WeatherDisplay:10.37,2013-01-18 19:21:00,
2013-01-18 14:26:00,24.1,4.8,30.42,West,280,15.0,15.0,43,0.00,SCT,,0.00,WeatherDisplay:10.37,2013-01-18 19:26:00,
2013-01-18 14:31:00,24.1,4.8,30.42,West,280,15.0,15.0,43,0.00,SCT,,0.00,WeatherDisplay:10.37,2013-01-18 19:31:00,
2013-01-18 14:36:00,24.3,4.9,30.42,West,280,15.0,15.0,43,0.00,SCT,,0.00,WeatherDisplay:10.37,2013-01-18 19:36:00,
2013-01-18 14:41:00,24.4,5.1,30.42,West,280,15.0,15.0,43,0.00,SCT,,0.00,WeatherDisplay:10.37,2013-01-18 19:41:00,
2013-01-18 14:46:00,24.6,5.3,30.42,West,280,15.0,15.0,43,0.00,SCT,,0.00,WeatherDisplay:10.37,2013-01-18 19:46:00,
2013-01-18 14:51:00,24.8,5.4,30.42,West,280,15.0,15.0,43,0.00,SCT,,0.00,WeatherDisplay:10.37,2013-01-18 19:51:00,
2013-01-18 14:56:00,24.8,5.4,30.40,West,280,15.0,15.0,43,0.00,SCT,,0.00,WeatherDisplay:10.37,2013-01-18 19:56:00,
2013-01-18 15:01:00,24.4,5.1,30.40,West,280,15.0,15.0,43,0.00,SCT,,0.00,WeatherDisplay:10.37,2013-01-18 20:01:00,
2013-01-18 15:06:00,24.4,5.1,30.40,West,280,15.0,15.0,43,0.00,SCT,,0.00,WeatherDisplay:10.37,2013-01-18 20:06:00,
2013-01-18 15:11:00,24.4,5.1,30.42,West,280,15.0,15.0,43,0.00,SCT,,0.00,WeatherDisplay:10.37,2013-01-18 20:11:00,
2013-01-18 15:16:00,24.3,4.9,30.42,NW,310,11.5,15.0,43,0.00,FEW,,0.00,WeatherDisplay:10.37,2013-01-18 20:16:00,
2013-01-18 15:21:00,24.1,4.8,30.42,NW,310,11.5,11.5,43,0.00,FEW,,0.00,WeatherDisplay:10.37,2013-01-18 20:21:00,
2013-01-18 15:26:00,24.1,4.8,30.42,NW,310,11.5,11.5,43,0.00,FEW,,0.00,WeatherDisplay:10.37,2013-01-18 20:26:00,
2013-01-18 15:31:00,24.3,4.9,30.42,NW,310,11.5,11.5,43,0.00,FEW,,0.00,WeatherDisplay:10.37,2013-01-18 20:31:00,
2013-01-18 15:36:00,23.9,4.6,30.42,NW,310,11.5,11.5,43,0.00,FEW,,0.00,WeatherDisplay:10.37,2013-01-18 20:36:00,
2013-01-18 15:41:00,23.9,4.6,30.42,NW,310,11.5,11.5,43,0.00,FEW,,0.00,WeatherDisplay:10.37,2013-01-18 20:41:00,
2013-01-18 15:46:00,23.9,4.6,30.42,NW,310,11.5,11.5,43,0.00,FEW,,0.00,WeatherDisplay:10.37,2013-01-18 20:46:00,
2013-01-18 15:51:00,23.7,4.5,30.42,NW,310,11.5,11.5,43,0.00,FEW,,0.00,WeatherDisplay:10.37,2013-01-18 20:51:00,
2013-01-18 15:56:00,23.7,4.5,30.42,NW,310,11.5,11.5,43,0.00,FEW,,0.00,WeatherDisplay:10.37,2013-01-18 20:56:00,
2013-01-18 16:01:00,23.5,7.2,30.42,West,270,12.7,12.7,49,0.00,FEW,,0.00,WeatherDisplay:10.37,2013-01-18 21:01:00,
2013-01-18 16:06:00,23.5,7.2,30.42,West,270,12.7,12.7,49,0.00,FEW,,0.00,WeatherDisplay:10.37,2013-01-18 21:06:00,
2013-01-18 16:11:00,23.4,7.0,30.42,West,270,12.7,12.7,49,0.00,FEW,,0.00,WeatherDisplay:10.37,2013-01-18 21:11:00,
2013-01-18 16:16:00,23.2,6.8,30.42,West,270,12.7,12.7,49,0.00,FEW,,0.00,WeatherDisplay:10.37,2013-01-18 21:16:00,
2013-01-18 16:21:00,23.0,6.7,30.42,West,270,12.7,12.7,49,0.00,FEW,,0.00,WeatherDisplay:10.37,2013-01-18 21:21:00,
2013-01-18 16:26:00,22.8,6.5,30.42,West,270,12.7,12.7,49,0.00,FEW,,0.00,WeatherDisplay:10.37,2013-01-18 21:26:00,
2013-01-18 16:31:00,22.8,6.5,30.42,West,270,12.7,12.7,49,0.00,FEW,,0.00,WeatherDisplay:10.37,2013-01-18 21:31:00,
2013-01-18 16:36:00,22.6,6.3,30.42,West,270,12.7,12.7,49,0.00,FEW,,0.00,WeatherDisplay:10.37,2013-01-18 21:36:00,
2013-01-18 16:41:00,22.5,6.2,30.42,West,270,12.7,12.7,49,0.00,FEW,,0.00,WeatherDisplay:10.37,2013-01-18 21:41:00,
2013-01-18 16:46:00,22.1,5.8,30.42,West,270,12.7,12.7,49,0.00,FEW,,0.00,WeatherDisplay:10.37,2013-01-18 21:46:00,
2013-01-18 16:51:00,22.1,5.8,30.42,West,270,12.7,12.7,49,0.00,FEW,,0.00,WeatherDisplay:10.37,2013-01-18 21:51:00,
2013-01-18 16:56:00,21.9,5.7,30.42,West,270,12.7,12.7,49,0.00,FEW,,0.00,WeatherDisplay:10.37,2013-01-18 21:56:00,
2013-01-18 17:01:00,21.7,5.5,30.42,West,260,8.1,12.7,49,0.00,FEW,,0.00,WeatherDisplay:10.37,2013-01-18 22:01:00,
2013-01-18 17:06:00,21.6,5.3,30.42,West,260,8.1,8.1,49,0.00,FEW,,0.00,WeatherDisplay:10.37,2013-01-18 22:06:00,
2013-01-18 17:11:00,21.6,5.3,30.42,West,260,8.1,8.1,49,0.00,FEW,,0.00,WeatherDisplay:10.37,2013-01-18 22:11:00,
2013-01-18 17:16:00,21.2,5.0,30.42,West,260,8.1,8.1,49,0.00,FEW,,0.00,WeatherDisplay:10.37,2013-01-18 22:16:00,
2013-01-18 17:21:00,21.2,5.0,30.42,West,260,8.1,8.1,49,0.00,FEW,,0.00,WeatherDisplay:10.37,2013-01-18 22:21:00,
2013-01-18 17:26:00,21.0,4.8,30.42,West,260,8.1,8.1,49,0.00,FEW,,0.00,WeatherDisplay:10.37,2013-01-18 22:26:00,
2013-01-18 17:31:00,20.8,4.7,30.42,West,260,8.1,8.1,49,0.00,FEW,,0.00,WeatherDisplay:10.37,2013-01-18 22:31:00,
2013-01-18 17:36:00,20.7,4.5,30.42,West,260,8.1,8.1,49,0.00,FEW,,0.00,WeatherDisplay:10.37,2013-01-18 22:36:00,
2013-01-18 17:41:00,20.7,4.5,30.42,West,260,8.1,8.1,49,0.00,FEW,,0.00,WeatherDisplay:10.37,2013-01-18 22:41:00,
2013-01-18 17:46:00,20.5,4.3,30.42,West,260,8.1,8.1,49,0.00,FEW,,0.00,WeatherDisplay:10.37,2013-01-18 22:46:00,
2013-01-18 17:51:00,20.3,4.2,30.42,West,260,8.1,8.1,49,0.00,FEW,,0.00,WeatherDisplay:10.37,2013-01-18 22:51:00,
2013-01-18 17:56:00,20.1,4.0,30.42,West,260,8.1,8.1,49,0.00,FEW,,0.00,WeatherDisplay:10.37,2013-01-18 22:56:00,
2013-01-18 18:01:00,20.1,4.9,30.42,West,260,0.0,8.1,51,0.00,FEW,,0.00,WeatherDisplay:10.37,2013-01-18 23:01:00,
2013-01-18 18:06:00,20.1,4.9,30.42,West,260,0.0,0.0,51,0.00,FEW,,0.00,WeatherDisplay:10.37,2013-01-18 23:06:00,
2013-01-18 18:11:00,19.8,4.5,30.42,West,260,0.0,0.0,51,0.00,FEW,,0.00,WeatherDisplay:10.37,2013-01-18 23:11:00,
2013-01-18 18:16:00,19.8,4.5,30.42,West,260,0.0,0.0,51,0.00,FEW,,0.00,WeatherDisplay:10.37,2013-01-18 23:16:00,
2013-01-18 18:21:00,19.6,4.4,30.42,West,260,0.0,0.0,51,0.00,FEW,,0.00,WeatherDisplay:10.37,2013-01-18 23:21:00,
2013-01-18 18:26:00,19.4,4.2,30.42,West,260,0.0,0.0,51,0.00,FEW,,0.00,WeatherDisplay:10.37,2013-01-18 23:26:00,
2013-01-18 18:31:00,19.2,4.0,30.42,West,260,0.0,0.0,51,0.00,FEW,,0.00,WeatherDisplay:10.37,2013-01-18 23:31:00,
2013-01-18 18:36:00,19.2,4.0,30.42,West,260,0.0,0.0,51,0.00,FEW,,0.00,WeatherDisplay:10.37,2013-01-18 23:36:00,
2013-01-18 18:41:00,19.0,3.9,30.42,West,260,0.0,0.0,51,0.00,FEW,,0.00,WeatherDisplay:10.37,2013-01-18 23:41:00,
2013-01-18 18:46:00,18.9,3.7,30.42,West,260,0.0,0.0,51,0.00,FEW,,0.00,WeatherDisplay:10.37,2013-01-18 23:46:00,
2013-01-18 18:51:00,18.7,3.5,30.42,West,260,0.0,0.0,51,0.00,FEW,,0.00,WeatherDisplay:10.37,2013-01-18 23:51:00,
2013-01-18 18:56:00,18.5,3.4,30.42,West,260,0.0,0.0,51,0.00,FEW,,0.00,WeatherDisplay:10.37,2013-01-18 23:56:00,
2013-01-18 19:01:00,18.5,3.4,30.42,West,260,0.0,0.0,51,0.00,FEW,,0.00,WeatherDisplay:10.37,2013-01-19 00:01:00,
2013-01-18 19:06:00,18.3,3.2,30.42,West,260,0.0,0.0,51,0.00,FEW,,0.00,WeatherDisplay:10.37,2013-01-19 00:06:00,
2013-01-18 19:11:00,18.3,3.2,30.42,West,260,0.0,0.0,51,0.00,FEW,,0.00,WeatherDisplay:10.37,2013-01-19 00:11:00,
2013-01-18 19:16:00,18.1,5.1,30.42,SSE,160,3.5,0.0,56,0.00,FEW,,0.00,WeatherDisplay:10.37,2013-01-19 00:16:00,
2013-01-18 19:21:00,18.1,5.1,30.42,SSE,160,3.5,3.5,56,0.00,FEW,,0.00,WeatherDisplay:10.37,2013-01-19 00:21:00,
2013-01-18 19:26:00,18.1,5.1,30.42,SSE,160,3.5,3.5,56,0.00,FEW,,0.00,WeatherDisplay:10.37,2013-01-19 00:26:00,
2013-01-18 19:31:00,18.0,4.9,30.40,SSE,160,3.5,3.5,56,0.00,FEW,,0.00,WeatherDisplay:10.37,2013-01-19 00:31:00,
2013-01-18 19:36:00,17.6,4.5,30.40,SSE,160,3.5,3.5,56,0.00,FEW,,0.00,WeatherDisplay:10.37,2013-01-19 00:36:00,
2013-01-18 19:41:00,17.8,4.7,30.40,SSE,160,3.5,3.5,56,0.00,FEW,,0.00,WeatherDisplay:10.37,2013-01-19 00:41:00,
2013-01-18 19:46:00,17.8,4.7,30.40,SSE,160,3.5,3.5,56,0.00,FEW,,0.00,WeatherDisplay:10.37,2013-01-19 00:46:00,
2013-01-18 19:51:00,17.6,4.5,30.40,SSE,160,3.5,3.5,56,0.00,FEW,,0.00,WeatherDisplay:10.37,2013-01-19 00:51:00,
2013-01-18 19:56:00,17.6,4.5,30.40,SSE,160,3.5,3.5,56,0.00,FEW,,0.00,WeatherDisplay:10.37,2013-01-19 00:56:00,
2013-01-18 20:01:00,17.2,5.3,30.40,South,170,3.5,3.5,59,0.00,FEW,,0.00,WeatherDisplay:10.37,2013-01-19 01:01:00,
2013-01-18 20:06:00,17.2,5.3,30.40,South,170,3.5,3.5,59,0.00,FEW,,0.00,WeatherDisplay:10.37,2013-01-19 01:06:00,
2013-01-18 20:11:00,17.2,5.3,30.40,South,170,3.5,3.5,59,0.00,FEW,,0.00,WeatherDisplay:10.37,2013-01-19 01:11:00,
2013-01-18 20:16:00,17.2,5.3,30.40,South,170,3.5,3.5,59,0.00,FEW,,0.00,WeatherDisplay:10.37,2013-01-19 01:16:00,
2013-01-18 20:21:00,17.1,5.2,30.40,South,170,3.5,3.5,59,0.00,FEW,,0.00,WeatherDisplay:10.37,2013-01-19 01:21:00,
2013-01-18 20:26:00,16.9,5.0,30.40,South,170,3.5,3.5,59,0.00,FEW,,0.00,WeatherDisplay:10.37,2013-01-19 01:26:00,
2013-01-18 20:32:00,16.9,5.0,30.40,South,170,3.5,3.5,59,0.00,FEW,,0.00,WeatherDisplay:10.37,2013-01-19 01:32:00,
2013-01-18 20:37:00,16.9,5.0,30.40,South,170,3.5,3.5,59,0.00,FEW,,0.00,WeatherDisplay:10.37,2013-01-19 01:37:00,
2013-01-18 20:42:00,16.7,4.8,30.40,South,170,3.5,3.5,59,0.00,FEW,,0.00,WeatherDisplay:10.37,2013-01-19 01:42:00,
2013-01-18 20:47:00,17.1,5.2,30.40,South,170,3.5,3.5,59,0.00,FEW,,0.00,WeatherDisplay:10.37,2013-01-19 01:47:00,
2013-01-18 20:52:00,16.9,5.0,30.40,South,170,3.5,3.5,59,0.00,FEW,,0.00,WeatherDisplay:10.37,2013-01-19 01:52:00,
2013-01-18 20:57:00,16.9,5.0,30.40,South,170,3.5,3.5,59,0.00,FEW,,0.00,WeatherDisplay:10.37,2013-01-19 01:57:00,
2013-01-18 21:02:00,17.1,5.2,30.40,South,170,3.5,3.5,59,0.00,FEW,,0.00,WeatherDisplay:10.37,2013-01-19 02:02:00,
2013-01-18 21:07:00,17.2,5.3,30.40,South,170,3.5,3.5,59,0.00,FEW,,0.00,WeatherDisplay:10.37,2013-01-19 02:07:00,
2013-01-18 21:12:00,17.1,5.2,30.37,South,170,3.5,3.5,59,0.00,FEW,,0.00,WeatherDisplay:10.37,2013-01-19 02:12:00,
2013-01-18 21:17:00,17.4,4.4,30.37,South,170,4.6,4.6,56,0.00,FEW,,0.00,WeatherDisplay:10.37,2013-01-19 02:17:00,
2013-01-18 21:22:00,17.6,4.5,30.37,South,170,4.6,4.6,56,0.00,FEW,,0.00,WeatherDisplay:10.37,2013-01-19 02:22:00,
2013-01-18 21:27:00,18.1,5.1,30.37,South,170,4.6,4.6,56,0.00,FEW,,0.00,WeatherDisplay:10.37,2013-01-19 02:27:00,
2013-01-18 21:33:00,18.3,5.2,30.37,South,170,4.6,4.6,56,0.00,FEW,,0.00,WeatherDisplay:10.37,2013-01-19 02:33:00,
2013-01-18 21:38:00,18.5,5.4,30.37,South,170,4.6,4.6,56,0.00,FEW,,0.00,WeatherDisplay:10.37,2013-01-19 02:38:00,
2013-01-18 21:43:00,18.9,5.7,30.37,South,170,4.6,4.6,56,0.00,FEW,,0.00,WeatherDisplay:10.37,2013-01-19 02:43:00,
2013-01-18 21:48:00,19.0,5.9,30.37,South,170,4.6,4.6,56,0.00,FEW,,0.00,WeatherDisplay:10.37,2013-01-19 02:48:00,
2013-01-18 21:53:00,19.4,6.2,30.37,South,170,4.6,4.6,56,0.00,FEW,,0.00,WeatherDisplay:10.37,2013-01-19 02:53:00,
2013-01-18 21:58:00,19.6,6.4,30.37,South,170,4.6,4.6,56,0.00,FEW,,0.00,WeatherDisplay:10.37,2013-01-19 02:58:00,
2013-01-18 22:03:00,19.6,6.4,30.37,South,170,6.9,6.9,56,0.00,BKN,,0.00,WeatherDisplay:10.37,2013-01-19 03:03:00,
2013-01-18 22:08:00,19.8,6.6,30.37,South,170,6.9,6.9,56,0.00,BKN,,0.00,WeatherDisplay:10.37,2013-01-19 03:08:00,
2013-01-18 22:13:00,19.9,6.7,30.34,South,170,6.9,6.9,56,0.00,BKN,,0.00,WeatherDisplay:10.37,2013-01-19 03:13:00,
2013-01-18 22:18:00,20.3,7.1,30.34,South,170,6.9,6.9,56,0.00,BKN,,0.00,WeatherDisplay:10.37,2013-01-19 03:18:00,
2013-01-18 22:23:00,20.3,7.1,30.34,South,170,6.9,6.9,56,0.00,BKN,,0.00,WeatherDisplay:10.37,2013-01-19 03:23:00,
2013-01-18 22:28:00,20.5,7.3,30.34,South,170,6.9,6.9,56,0.00,BKN,,0.00,WeatherDisplay:10.37,2013-01-19 03:28:00,
2013-01-18 22:33:00,20.8,7.6,30.34,South,170,6.9,6.9,56,0.00,BKN,,0.00,WeatherDisplay:10.37,2013-01-19 03:33:00,
2013-01-18 22:38:00,21.0,7.8,30.34,South,170,6.9,6.9,56,0.00,BKN,,0.00,WeatherDisplay:10.37,2013-01-19 03:38:00,
2013-01-18 22:43:00,21.2,7.9,30.34,South,170,6.9,6.9,56,0.00,BKN,,0.00,WeatherDisplay:10.37,2013-01-19 03:43:00,
2013-01-18 22:48:00,21.4,8.1,30.34,South,170,6.9,6.9,56,0.00,BKN,,0.00,WeatherDisplay:10.37,2013-01-19 03:48:00,
2013-01-18 22:53:00,21.6,8.3,30.34,South,170,6.9,6.9,56,0.00,BKN,,0.00,WeatherDisplay:10.37,2013-01-19 03:53:00,
2013-01-18 22:58:00,21.7,8.4,30.31,South,170,6.9,6.9,56,0.00,BKN,,0.00,WeatherDisplay:10.37,2013-01-19 03:58:00,
2013-01-18 23:03:00,21.9,7.8,30.31,South,170,10.4,10.4,54,0.00,OVC,,0.00,WeatherDisplay:10.37,2013-01-19 04:03:00,
2013-01-18 23:08:00,21.9,7.8,30.31,South,170,10.4,10.4,54,0.00,OVC,,0.00,WeatherDisplay:10.37,2013-01-19 04:08:00,
2013-01-18 23:13:00,22.1,8.0,30.31,South,170,10.4,10.4,54,0.00,OVC,,0.00,WeatherDisplay:10.37,2013-01-19 04:13:00,
2013-01-18 23:18:00,22.5,8.3,30.31,South,170,10.4,10.4,54,0.00,OVC,,0.00,WeatherDisplay:10.37,2013-01-19 04:18:00,
2013-01-18 23:23:00,22.6,8.5,30.31,South,170,10.4,10.4,54,0.00,OVC,,0.00,WeatherDisplay:10.37,2013-01-19 04:23:00,
2013-01-18 23:28:00,22.8,8.6,30.28,South,170,10.4,10.4,54,0.00,OVC,,0.00,WeatherDisplay:10.37,2013-01-19 04:28:00,
2013-01-18 23:33:00,22.8,8.6,30.28,South,170,10.4,10.4,54,0.00,OVC,,0.00,WeatherDisplay:10.37,2013-01-19 04:33:00,
2013-01-18 23:38:00,23.2,9.0,30.28,South,170,10.4,10.4,54,0.00,OVC,,0.00,WeatherDisplay:10.37,2013-01-19 04:38:00,
2013-01-18 23:43:00,23.2,9.0,30.28,South,170,10.4,10.4,54,0.00,OVC,,0.00,WeatherDisplay:10.37,2013-01-19 04:43:00,
2013-01-18 23:48:00,23.4,9.1,30.28,South,170,10.4,10.4,54,0.00,OVC,,0.00,WeatherDisplay:10.37,2013-01-19 04:48:00,
2013-01-18 23:53:00,23.5,9.3,30.28,South,170,10.4,10.4,54,0.00,OVC,,0.00,WeatherDisplay:10.37,2013-01-19 04:53:00,
2013-01-18 23:58:00,23.5,9.3,30.28,South,170,10.4,10.4,54,0.00,OVC,,0.00,WeatherDisplay:10.37,2013-01-19 04:58:00,